Time,TemperatureF,DewpointF,PressureIn,WindDirection,WindDirectionDegrees,WindSpeedMPH,WindSpeedGustMPH,Humidity,HourlyPrecipIn,Conditions,Clouds,dailyrainin,SoftwareType,DateUTC
2013-06-05 00:42:00,80.0,41.0,-100.00,West,278,7.0,20.0,25,-99.99,,,-99.99,,2013-06-05 00:42:00,
2013-06-05 00:52:00,79.0,44.0,-100.00,WNW,289,7.0,18.0,29,-99.99,,,-99.99,,2013-06-05 00:52:00,
2013-06-05 01:02:00,79.0,44.0,-100.00,WNW,289,7.0,18.0,29,-99.99,,,-99.99,,2013-06-05 01:02:00,
2013-06-05 01:12:00,79.0,44.0,-100.00,WNW,289,7.0,18.0,29,-99.99,,,-99.99,,2013-06-05 01:12:00,
2013-06-05 01:22:00,77.0,42.0,-100.00,WNW,288,7.0,15.0,29,-99.99,,,-99.99,,2013-06-05 01:22:00,
2013-06-05 01:32:00,77.0,42.0,-100.00,WNW,288,7.0,15.0,29,-99.99,,,-99.99,,2013-06-05 01:32:00,
2013-06-05 01:42:00,77.0,42.0,-100.00,WNW,288,7.0,15.0,29,-99.99,,,-99.99,,2013-06-05 01:42:00,
2013-06-05 01:52:00,77.0,45.0,-100.00,WNW,298,9.0,17.0,32,-99.99,,,-99.99,,2013-06-05 01:52:00,
2013-06-05 02:02:00,77.0,45.0,-100.00,WNW,298,9.0,17.0,32,-99.99,,,-99.99,,2013-06-05 02:02:00,
2013-06-05 02:12:00,76.0,44.0,-100.00,WNW,294,8.0,18.0,32,-99.99,,,-99.99,,2013-06-05 02:12:00,
2013-06-05 02:22:00,76.0,44.0,-100.00,WNW,294,8.0,18.0,32,-99.99,,,-99.99,,2013-06-05 02:22:00,
2013-06-05 02:32:00,76.0,44.0,-100.00,WNW,294,8.0,18.0,32,-99.99,,,-99.99,,2013-06-05 02:32:00,
2013-06-05 02:52:00,76.0,41.0,-100.00,WNW,292,7.0,13.0,29,-99.99,,,-99.99,,2013-06-05 02:52:00,
2013-06-05 03:02:00,76.0,41.0,-100.00,WNW,292,7.0,13.0,29,-99.99,,,-99.99,,2013-06-05 03:02:00,
2013-06-05 03:12:00,76.0,41.0,-100.00,WNW,292,7.0,13.0,29,-99.99,,,-99.99,,2013-06-05 03:12:00,
2013-06-05 08:52:00,69.0,35.0,-100.00,NW,309,4.0,9.0,28,-99.99,,,-99.99,,2013-06-05 08:52:00,
2013-06-05 09:02:00,69.0,35.0,-100.00,NW,309,4.0,9.0,28,-99.99,,,-99.99,,2013-06-05 09:02:00,
2013-06-05 09:22:00,66.0,35.0,-100.00,WNW,282,1.0,4.0,32,-99.99,,,-99.99,,2013-06-05 09:22:00,
2013-06-05 09:32:00,66.0,35.0,-100.00,WNW,282,1.0,4.0,32,-99.99,,,-99.99,,2013-06-05 09:32:00,
2013-06-05 10:12:00,65.0,33.0,-100.00,South,191,1.0,3.0,30,-99.99,,,-99.99,,2013-06-05 10:12:00,
2013-06-05 10:22:00,65.0,33.0,-100.00,South,191,1.0,3.0,30,-99.99,,,-99.99,,2013-06-05 10:22:00,
2013-06-05 10:33:00,65.0,33.0,-100.00,South,191,1.0,3.0,30,-99.99,,,-99.99,,2013-06-05 10:33:00,
2013-06-05 12:22:00,62.0,27.0,-100.00,SSW,213,0.0,3.0,26,-99.99,,,-99.99,,2013-06-05 12:22:00,
2013-06-05 12:32:00,65.0,25.0,-100.00,NW,313,2.0,8.0,22,-99.99,,,-99.99,,2013-06-05 12:32:00,
2013-06-05 12:52:00,62.0,30.0,-100.00,NNW,328,1.0,7.0,30,-99.99,,,-99.99,,2013-06-05 12:52:00,
2013-06-05 13:02:00,62.0,30.0,-100.00,NNW,328,1.0,7.0,30,-99.99,,,-99.99,,2013-06-05 13:02:00,
2013-06-05 19:32:00,82.0,30.0,-100.00,ESE,102,4.0,10.0,15,-99.99,,,-99.99,,2013-06-05 19:32:00,
2013-06-05 19:42:00,82.0,30.0,-100.00,ESE,102,4.0,10.0,15,-99.99,,,-99.99,,2013-06-05 19:42:00,
2013-06-05 19:52:00,83.0,27.0,-100.00,East,93,3.0,10.0,13,-99.99,,,-99.99,,2013-06-05 19:52:00,
2013-06-05 20:02:00,83.0,27.0,-100.00,East,93,3.0,10.0,13,-99.99,,,-99.99,,2013-06-05 20:02:00,
2013-06-05 20:22:00,83.0,27.0,-100.00,East,93,3.0,10.0,13,-99.99,,,-99.99,,2013-06-05 20:22:00,
2013-06-05 20:32:00,83.0,27.0,-100.00,East,90,4.0,11.0,13,-99.99,,,-99.99,,2013-06-05 20:32:00,
2013-06-05 20:42:00,83.0,27.0,-100.00,East,90,4.0,11.0,13,-99.99,,,-99.99,,2013-06-05 20:42:00,
2013-06-05 20:52:00,83.0,27.0,-100.00,East,90,4.0,11.0,13,-99.99,,,-99.99,,2013-06-05 20:52:00,
2013-06-05 21:02:00,83.0,27.0,-100.00,East,90,4.0,11.0,13,-99.99,,,-99.99,,2013-06-05 21:02:00,
2013-06-05 21:22:00,84.0,26.0,-100.00,East,86,4.0,12.0,12,-99.99,,,-99.99,,2013-06-05 21:22:00,
2013-06-05 21:33:00,84.0,26.0,-100.00,East,86,4.0,12.0,12,-99.99,,,-99.99,,2013-06-05 21:33:00,
2013-06-05 21:43:00,84.0,26.0,-100.00,East,86,4.0,12.0,12,-99.99,,,-99.99,,2013-06-05 21:43:00,
2013-06-05 21:53:00,85.0,20.0,-100.00,ENE,65,3.0,11.0,9,-99.99,,,-99.99,,2013-06-05 21:53:00,
2013-06-05 22:02:00,85.0,20.0,-100.00,ENE,65,3.0,11.0,9,-99.99,,,-99.99,,2013-06-05 22:02:00,
2013-06-05 22:22:00,85.0,20.0,-100.00,ENE,65,3.0,11.0,9,-99.99,,,-99.99,,2013-06-05 22:22:00,
2013-06-05 22:32:00,86.0,23.0,-100.00,ESE,110,4.0,11.0,10,-99.99,,,-99.99,,2013-06-05 22:32:00,
2013-06-05 22:41:00,86.0,21.0,-100.00,East,95,3.0,10.0,9,-99.99,,,-99.99,,2013-06-05 22:41:00,
2013-06-05 22:43:00,86.0,23.0,-100.00,ESE,110,4.0,11.0,10,-99.99,,,-99.99,,2013-06-05 22:43:00,
2013-06-05 22:52:00,86.0,23.0,-100.00,ESE,110,4.0,11.0,10,-99.99,,,-99.99,,2013-06-05 22:52:00,
2013-06-05 23:02:00,86.0,23.0,-100.00,ESE,110,4.0,11.0,10,-99.99,,,-99.99,,2013-06-05 23:02:00,
2013-06-05 23:12:00,86.0,21.0,-100.00,East,95,3.0,10.0,9,-99.99,,,-99.99,,2013-06-05 23:12:00,
2013-06-05 23:22:00,86.0,21.0,-100.00,East,95,3.0,10.0,9,-99.99,,,-99.99,,2013-06-05 23:22:00,
2013-06-05 23:53:00,86.0,21.0,-100.00,ESE,114,3.0,9.0,9,-99.99,,,-99.99,,2013-06-05 23:53:00,